SL-14 DEB, 43320

Orbit data source: Space-Track

SL-14 DEB, 43320 is space debris in LEO originally from a launch on Tue, 02 Dec 1986 UTC launched from the Plesetsk Missile And Space Complex (PKMTR). Debris objects in space refer to the collection of defunct objects orbiting the Earth. Examples of debris include non-operational satellites, rocket bodies, and fragments generated from explosions, collisions, or faulty payload assembly.

Loading next visibility...
Identifier
43320, 1986-094C
Orbit
LEO
Country
Flag of CISCIS
Related business
Manufacturer
Unknown
Mission
Spacecraft
Bus & Motor
Unknown
Mass
Unknown
Launch date (UTC)
1986-12-02 (39 years ago)
Launch vehicle
Unknown
Launch site
Plesetsk Missile And Space Complex (PKMTR)
Object type
Payload
Rocket body
Debris
Shape & HBR
Unknown
Radar Cross Section
Small (<0.1 m²)

Expand to show TLE details & history
Last TLE update: 1 week ago

TLE from 1 week ago
0 SL-14 DEB
1 43320U 86094C   25254.07389840  .00000059  00000-0  35416-3 0  9992
2 43320  82.6099 176.9893 0004556 339.9224  20.1675 12.42165554454114
Epoch: 2025-09-11T01:46Z
TLE epoch observation values (Epoch: 2025-09-11T01:46:24.821Z)
Latitude
-0.0001°
Longitude
160.04468°
Altitude
1,496.769 km
Speed
7.117 km/s
True Right ascension
11h 47m 57s
True Declination
0° 00' 00"
Sunlit
Object was in daylight at epoch
Visualization orbit readout
Latitude
Unknown
Longitude
Unknown
Altitude
Unknown
Speed
Unknown
Apparent Right ascension
Unknown
Apparent Declination
Unknown
Sunlit
N/A
Visualization observer readout
Local Sidereal Time
12:45:25
Azimuth
Unknown
Elevation
Unknown
Doppler factor
Unknown
Orbital elements
Apogee altitude
1,498.372 km
Perigee altitude
1,491.198 km
Semi-major axis
7,872.922 km
Eccentricity
0.00046
Inclination
82.6099°
RAAN
176.9893°
Arg. of periapsis
339.9224°
True anomaly
20.18551°
Mean anomaly
20.1675°
Eccentric anomaly
20.1765°
Mean motion
3.10699 °/min
Orbital period
115.87 mins
BSTAR
0.00035416
Loading maneuver chart data...
Computing Atmospheric mass density...
Loading historical data...
Loading historical data...
Loading historical data...
Loading historical data...
Loading historical data...
Loading historical data...
Loading historical data...
Other satellites on launch #94 in the year 1986 (1986-12-02 UTC)

Documentation

Showing up to 5 results
|